Вернуться в каталог

STARLINK-31329

АктивенСвязьVLEO
NORAD 59169·PAYLOAD·🇺🇸 United States

Запущен Mar 4, 2024 с Cape Canaveral Space Force Station

Loading…

Ближайшие Пролёты (ближайшие 24 часа)

TLE

СвежийSource: CelesTrak SupGP

Эпоха: Sep 14, 2026, 14:26 UTC

1 59169C 24044T   26257.60187500  .00046929  00000+0  16986-2 0  2571
2 59169  43.0004 120.3711 0001438 258.6370 138.5063 15.27578459    15

Отслеживайте STARLINK-31329 в реальном времени с AllMySat

Download on the App Store